Skip Page Navigation
NASA JPL Caltech
NASA Logo - Jet Propulsion Laboratory + View the NASA Portal
+ Center for Near-Earth Object Studies
JPL Home Earth Solar System Stars & Galaxies Technology
JPL Solar System Dynamics
BODIES ORBITS EPHEMERIDES TOOLS PHYSICAL DATA DISCOVERY FAQ SITE MAP
JPL Small-Body Database Browser
Search: [ help ]  
39367 (2002 BY16)
Classification: Main-belt Asteroid          SPK-ID: 2039367
Ephemeris | Orbit Diagram | Orbital Elements | Mission Design | Physical Parameters | Discovery Circumstances ]

[ show orbit diagram ]
Orbital Elements at Epoch 2459000.5 (2020-May-31.0) TDB
Reference: JPL 26 (heliocentric ecliptic J2000)
 Element Value Uncertainty (1-sigma)   Units 
e .02734457927390366 3.6572e-08  
a 2.80170609068107 1.7554e-08 au
q 2.725094616382263 1.0008e-07 au
i 5.94574839626295 4.5977e-06 deg
node 162.0905352722269 3.941e-05 deg
peri 140.3981032218644 9.562e-05 deg
M 176.1424971852343 8.7147e-05 deg
tp 2458162.403674539586
(2018-Feb-12.90367454)
0.00041535 TDB
period 1712.901099888808
4.69
1.6098e-05
4.407e-08
d
yr
n .2101697523712076 1.9752e-09 deg/d
Q 2.878317564979878 1.8034e-08 au
  Orbit Determination Parameters
   # obs. used (total)      870  
   data-arc span      9815 days (26.87 yr)  
   first obs. used      1993-03-19  
   last obs. used      2020-02-01  
   planetary ephem.      DE431  
   SB-pert. ephem.      SB431-N16  
   condition code      0  
   norm. resid. RMS      .53206  
   source      ORB  
   producer      Otto Matic  
   solution date      2020-Feb-23 05:11:23  

Additional Information
 Earth MOID = 1.71327 au 
 Jupiter MOID = 2.17741 au 
 T_jup = 3.316 
[ show covariance matrix ]

Ephemeris | Orbit Diagram | Orbital Elements | Mission Design | Physical Parameters | Discovery Circumstances ]

Physical Parameter Table
Parameter Symbol Value Units Sigma Reference Notes
absolute magnitude H 15.0   n/a PDS3 (MPO 26831)  

39367 (2002 BY16)          Discovered 2002-Jan-19 by LINEAR at Socorro
Reference: 20020328/Numbers.arcLast Updated: 2004-04-19

Alternate Designations
 2002 BY16 = 1995 UR75 = 2000 WA31 
Ephemeris | Orbit Diagram | Orbital Elements | Mission Design | Physical Parameters | Discovery Circumstances ]
ABOUT SSD CREDITS/AWARDS PRIVACY/COPYRIGHT GLOSSARY LINKS
FirstGov 2020-Aug-15 18:30 UT
(server date/time)  
NASA Home Page
Site Manager:   Ryan S. Park
Webmaster  Alan B. Chamberlin